sat.trackr.live / text

‹ back to catalog

STARLINK-2422

NORAD 47832 · 2021-018AX

PAYLOAD ACTIVE UNKNOWN

§ Identity

Operator
Country
US
Launch date
2021-03-11
Launch site
AFETR
Launch vehicle
Mass (kg)
RCS (m²)

Purposes: comms

External: N2YO · Heavens-Above · Gunter

§ Orbital elements

Epoch: 2026-05-24T17:42:36.026208Z

Period
94.01 min
Inclination
53.1602°
Eccentricity
0.0000999
Mean motion
15.31698689 rev/d
Perigee alt
470.1 km
Apogee alt
471.4 km
Semi-major
6,848.9 km
B*
-2.2800e-5
RAAN
252.0084°
Arg perigee
71.0077°
Mean anomaly
289.1033°
Rev number
28,833

§ Raw data

STARLINK-24221 47832U 21018AX  26144.73791697 -.00001072  00000+0 -22800-4 0  99992 47832  53.1602 252.0084 0000999  71.0077 289.1033 15.31698689288339

JSON: /api/v1/satellites/47832 · /tle

For live sub-satellite position, see the globe view (requires WebGL).

§ Visibility from observer

Set your observer location to see the next 7 days of passes ≥ 10°. The values pass through the URL so the page stays shareable.

No JS? Fill the form by hand. The geolocation button needs JavaScript.